Location: Kaarina
(60.4167°N, 22.4167°E)
Time: 21:17:48
(UTC+03:00)

Cosmos 1340 - Pass Details

Date: 24 August 2019
Orbit: 503 x 505 km, 81.2° (Epoch: 22 September)

Event Time Altitude Azimuth Distance (km) Brightness Sun altitude
Exits shadow 22:15:11 - 160° (SSE) 1,825 4.9 -8.6°
Reaches altitude 10° 22:15:28 10° 158° (SSE) 1,718 4.8 -8.6°
Maximum altitude 22:18:50 32° 95° (E) 900 3.5 -8.9°
Drops below altitude 10° 22:22:14 10° 31° (NNE) 1,732 5.5 -9.3°
Sets 22:24:30 0° 22° (NNE) 2,623 6.6 -9.5°
